Wind_Speed
43 42 41 41 41 42 42 41 41 41 40 40 40 40 40 40 40 39 38 39 39 39 38 39 40 40 41 40 40 40 39 39 40 40 41 41 41 41 41 41 41 42 42 42 43 44 44 43 43 43 43 44 45 44 43 42 41 40 39 37 36 35 36 36 35 34 33 33 33 33 33 33 33 32 32 31 31 30 28 27 26 26 26 26 26 26
44 42 42 42 43 44 44 44 43 43 43 43 43 43 43 43 41 40 40 40 40 41 40 40 42 42 42 43 43 42 42 42 42 41 41 42 41 40 40 39 39 39 39 39 39 39 38 37 37 37 38 39 39 38 37 36 34 33 32 31 30 30 31 32 32 31 31 30 30 30 30 30 30 30 30 29 29 28 27 26 25 24 24 24 25 26
44 42 42 42 44 45 46 45 45 45 45 45 45 46 46 45 43 43 43 41 42 43 42 43 45 44 44 45 45 44 44 44 44 43 43 43 42 42 40 39 38 38 38 37 37 36 36 36 35 35 36 36 36 34 33 32 29 27 27 27 27 27 28 28 29 29 29 28 28 28 28 28 28 28 28 28 28 27 26 25 24 23 23 23 24 25
43 41 41 42 43 44 45 45 46 46 46 46 47 48 47 46 46 45 44 43 44 46 45 45 47 47 46 47 47 46 45 45 45 45 44 44 44 43 42 41 40 39 38 38 37 36 36 36 36 35 35 34 34 32 29 27 25 24 25 26 26 25 26 26 26 26 26 27 27 27 26 25 25 26 26 27 26 26 25 23 22 22 22 23 23 25
40 39 39 39 40 41 42 43 44 45 45 46 46 48 47 47 47 47 45 45 47 48 48 47 49 50 48 47 48 48 47 47 47 47 46 45 45 45 45 44 42 42 41 41 40 38 37 37 35 34 33 33 32 29 26 24 22 22 24 25 25 25 25 25 25 24 24 25 25 25 24 23 23 23 24 24 24 24 23 22 22 22 23 23 24 25
38 37 38 37 38 39 41 41 42 43 43 44 45 46 46 46 46 47 45 46 48 49 48 48 51 51 48 48 49 49 50 49 49 49 48 47 47 47 47 47 46 45 44 43 42 40 39 37 36 34 33 33 32 29 25 23 21 22 23 25 26 24 24 24 23 23 23 24 24 23 23 23 22 22 23 23 23 23 23 23 23 23 24 25 26 27
37 37 37 37 37 39 40 40 40 41 41 41 42 42 43 43 43 44 43 45 47 47 46 48 52 51 48 49 50 49 50 51 50 50 49 49 49 49 49 49 48 47 46 45 44 43 41 40 38 38 37 36 34 31 28 25 24 24 24 26 26 25 23 24 23 23 24 24 23 23 23 24 23 23 24 24 24 24 24 24 24 25 25 26 27 28
38 38 38 38 39 39 40 39 38 40 41 40 40 40 40 40 40 40 40 42 43 42 43 45 48 49 49 50 50 50 50 51 51 50 50 50 50 50 51 50 50 50 49 48 47 45 44 43 42 41 40 39 36 34 32 29 28 28 27 27 28 26 25 24 24 24 25 24 24 24 25 25 25 26 26 26 25 26 25 25 25 26 26 27 28 29
39 39 39 40 41 42 41 40 40 41 42 41 40 40 40 39 39 39 39 40 39 39 40 41 42 45 47 47 48 49 50 51 51 50 50 51 50 50 51 50 51 51 51 51 49 47 46 45 45 43 42 41 39 38 36 34 32 32 32 30 29 29 28 26 25 26 26 26 25 26 26 26 27 28 28 28 27 27 27 27 27 27 27 28 29 30
42 42 42 42 43 44 43 42 42 43 44 43 42 42 42 41 41 40 40 41 39 39 41 39 38 41 43 43 43 46 48 48 47 47 49 50 49 49 49 49 50 50 51 52 51 50 48 47 47 46 45 43 42 42 40 37 36 36 36 34 33 32 32 30 29 29 29 28 28 29 29 29 29 29 29 29 29 29 29 29 29 28 28 28 29 30
44 44 44 44 45 45 45 44 44 44 45 45 44 45 45 44 44 43 43 43 42 42 43 42 40 39 42 42 41 43 46 44 43 44 46 47 47 49 49 49 50 50 51 52 53 52 50 49 48 48 47 46 46 45 43 41 39 39 39 38 37 36 35 34 32 32 32 32 32 33 33 33 32 32 32 31 31 30 30 30 30 30 30 29 29 30
46 46 45 46 46 47 46 46 46 46 46 46 46 47 47 46 46 45 46 45 44 45 44 44 43 41 43 45 43 43 45 45 44 44 43 44 45 46 48 49 50 50 51 52 53 52 51 50 50 49 49 48 48 47 46 45 43 43 43 42 41 40 39 37 35 35 36 36 35 36 36 36 36 35 35 35 34 33 32 31 31 31 31 31 30 30
48 47 47 47 48 48 48 48 48 47 47 47 48 49 48 49 49 47 47 47 47 48 47 46 46 45 46 48 46 46 47 48 48 46 45 45 45 45 46 47 48 49 50 51 52 52 52 51 51 51 50 49 49 49 48 47 46 47 47 45 45 44 42 41 39 38 38 38 38 39 39 39 39 38 38 38 38 37 36 35 33 32 32 32 32 31
50 50 50 49 49 50 50 49 49 49 49 48 49 50 48 50 51 48 48 49 48 50 49 47 48 48 48 49 48 49 50 50 51 50 50 49 48 48 48 47 48 48 48 50 51 52 52 52 52 52 52 51 51 50 49 48 47 48 48 47 47 46 45 45 44 42 41 41 41 41 41 42 42 41 40 40 40 40 40 39 38 36 35 34 33 33
53 53 52 51 51 51 51 50 50 50 50 50 50 50 49 52 52 49 49 49 49 51 51 47 48 49 50 51 50 52 53 52 54 54 53 53 52 52 52 51 51 50 50 50 51 52 52 52 53 53 53 53 53 52 51 50 50 49 49 48 48 47 47 47 46 45 45 44 44 44 44 44 44 43 43 42 43 43 43 43 42 41 39 38 36 36
55 54 54 53 52 52 51 51 51 51 51 51 50 51 52 53 53 51 51 51 51 52 51 48 49 50 52 53 52 53 54 54 55 55 55 55 54 55 55 55 55 55 54 54 53 53 53 53 54 54 55 54 54 53 52 52 52 52 51 51 50 49 49 48 47 47 47 46 46 47 47 46 46 46 45 45 45 45 45 45 45 44 43 42 41 40
56 55 54 53 53 53 52 52 52 51 52 52 51 52 53 52 53 54 53 53 53 53 52 51 50 52 55 55 54 55 56 56 57 57 57 57 57 57 57 57 58 58 58 57 57 57 56 56 56 56 57 56 55 55 54 53 53 53 53 53 53 53 52 51 50 50 50 49 49 49 49 49 49 48 48 47 47 47 47 47 47 47 46 45 45 44
53 54 54 53 52 52 53 52 52 52 52 53 52 53 53 52 53 55 54 54 54 53 53 53 52 54 56 57 56 58 58 58 59 59 59 59 59 59 59 60 60 60 60 60 59 59 59 59 59 59 59 59 58 58 56 55 55 55 55 55 55 55 55 54 53 53 52 52 51 51 51 50 50 50 50 50 50 50 50 50 49 49 49 48 48 47
51 52 52 52 51 51 52 52 52 52 52 52 52 53 53 53 53 55 55 54 54 54 53 53 53 54 56 58 59 59 59 59 60 60 60 60 60 60 60 61 61 61 62 62 61 61 61 61 61 61 61 61 61 61 60 58 58 58 58 58 57 57 57 56 56 55 54 54 54 55 54 53 52 52 52 53 53 53 53 53 53 52 51 51 50 49
49 50 51 51 51 51 52 52 52 52 52 52 52 52 53 54 54 55 55 54 55 55 53 53 52 51 55 59 59 58 58 58 59 60 59 60 60 61 61 61 61 60 61 62 62 61 61 62 63 63 62 62 63 63 62 61 61 61 61 62 61 60 60 59 58 58 57 57 57 58 57 55 54 54 54 55 56 55 55 55 55 55 54 53 53 52
48 49 50 51 51 52 53 52 51 52 53 52 52 52 53 54 54 55 55 54 55 55 53 52 49 49 54 58 56 56 56 56 57 58 57 58 58 58 59 59 60 59 59 60 60 61 61 61 63 63 62 62 63 64 64 64 63 63 63 64 63 63 63 62 61 61 61 61 61 61 60 58 57 56 56 57 58 58 58 57 57 57 57 57 56 56
49 49 50 50 51 53 53 52 52 53 53 53 54 54 54 55 55 54 53 53 55 54 52 51 48 47 52 54 52 54 55 54 55 55 54 55 55 55 56 57 58 58 58 58 58 59 59 60 60 61 60 61 62 63 64 65 65 64 64 64 64 64 64 63 63 63 63 64 65 64 63 62 61 60 60 60 61 61 61 60 60 60 60 60 59 59
50 50 50 51 51 53 53 53 53 54 54 55 55 54 54 55 55 55 52 51 54 51 49 49 47 46 50 52 51 52 53 52 52 52 52 52 52 53 53 54 55 57 58 58 58 58 58 58 59 59 58 58 59 60 61 62 62 63 63 63 62 63 63 63 64 64 63 65 67 66 65 65 65 64 64 63 63 64 63 63 62 62 62 62 62 62
51 51 51 52 52 53 54 55 55 55 55 55 54 54 54 53 54 54 52 53 53 50 49 50 46 45 49 51 50 50 50 49 50 51 51 51 52 52 52 52 53 54 56 57 57 58 58 58 58 58 58 56 56 57 58 58 58 58 59 59 58 59 60 61 61 61 62 65 66 67 66 67 68 67 66 66 66 66 66 66 65 65 65 65 65 65
52 53 53 54 54 54 55 56 56 56 55 54 54 54 54 53 53 53 53 54 53 51 51 50 46 46 51 50 49 49 49 49 51 51 52 52 52 52 52 52 52 53 54 55 57 58 58 58 58 57 57 55 54 54 55 56 56 55 56 56 56 56 56 57 57 58 59 61 64 65 65 67 69 69 68 68 68 69 69 69 69 69 69 69 68 68
54 54 54 55 56 55 56 56 55 56 55 53 54 55 54 54 54 53 53 54 54 53 53 52 48 50 54 51 49 51 52 52 52 52 53 53 53 53 53 53 53 53 54 55 56 57 58 58 58 58 57 56 55 55 55 56 56 56 56 57 56 56 57 56 56 57 58 58 60 62 62 64 67 67 66 66 66 68 69 70 71 72 73 73 72 71
55 56 56 56 56 56 56 55 54 55 55 54 54 55 56 55 55 55 54 52 54 55 53 52 52 54 57 55 53 54 55 54 53 53 54 53 53 53 54 54 55 55 56 56 57 58 58 59 59 60 60 60 59 59 58 59 59 58 58 59 59 59 59 59 59 59 58 58 59 61 61 62 64 64 62 61 62 64 67 69 71 73 74 74 74 74
56 57 57 56 56 55 55 54 53 55 55 55 55 56 56 56 55 55 54 53 55 57 55 55 55 55 57 59 57 57 57 55 54 55 55 55 55 56 56 57 57 58 58 59 59 60 60 61 61 62 63 63 63 63 62 62 62 62 61 62 62 62 62 63 63 63 61 60 61 62 63 64 64 62 60 60 61 63 65 67 69 72 73 74 75 76
56 56 55 55 54 54 54 53 53 54 55 56 56 56 56 56 55 55 54 54 56 57 56 58 58 55 56 60 60 59 59 58 58 58 57 56 58 59 60 60 60 60 61 61 62 62 63 63 64 64 66 66 66 66 66 66 66 66 65 65 65 66 66 66 67 66 65 64 64 64 65 66 65 63 61 61 62 63 64 65 67 69 72 73 74 74
55 55 53 53 53 53 54 54 54 54 55 55 55 55 55 55 54 54 55 56 58 59 58 59 58 55 57 61 63 63 63 62 61 61 60 59 60 62 63 63 64 64 64 64 64 65 65 66 66 66 68 69 69 69 69 69 69 68 68 68 68 69 69 69 69 69 69 68 67 67 68 68 68 67 65 63 63 64 64 66 67 69 71 72 72 72
54 54 53 53 54 53 54 55 54 54 54 53 53 54 55 55 55 57 58 59 60 60 60 61 60 58 61 64 65 67 67 65 63 64 64 63 62 64 65 66 66 66 67 67 67 67 68 68 68 68 69 70 71 72 72 71 71 71 71 71 71 71 72 72 71 71 71 70 70 70 70 71 71 70 69 67 66 65 65 67 68 70 71 71 70 70
55 55 54 55 54 52 54 55 54 55 54 52 53 54 56 58 59 61 62 62 63 63 64 64 63 62 64 67 69 70 70 68 67 68 68 67 67 67 68 68 68 68 69 69 69 70 70 70 71 71 72 72 73 74 75 75 74 74 74 74 74 74 74 74 74 74 73 73 72 72 73 73 73 73 72 71 69 67 67 68 69 71 72 72 70 69
56 55 55 55 53 52 54 54 55 57 56 54 54 56 59 62 63 64 65 65 67 67 67 67 67 67 68 69 71 73 73 71 71 71 72 72 71 70 70 70 70 70 70 70 71 72 72 72 73 73 74 74 75 75 76 77 77 77 77 77 77 77 77 77 77 77 76 76 75 75 75 75 75 75 75 74 72 70 70 71 71 72 73 73 72 70
56 55 56 56 54 54 56 56 57 59 59 57 58 60 62 65 66 68 68 68 69 70 70 70 69 69 70 70 72 75 75 74 73 73 74 74 74 73 72 72 71 71 71 72 72 73 73 74 75 75 76 76 77 77 78 79 79 80 80 80 79 80 80 80 80 79 79 79 79 78 78 77 77 77 76 76 74 73 72 72 73 73 73 74 74 73
57 57 58 58 58 58 59 59 60 61 61 61 63 63 65 67 68 70 71 70 71 72 72 72 72 71 71 72 73 74 75 76 76 75 75 75 75 75 74 73 73 73 73 73 73 74 75 75 76 76 77 77 78 79 80 81 81 81 82 82 82 82 82 82 81 81 81 81 81 81 80 79 79 78 78 78 76 75 74 74 74 75 75 75 75 74
59 60 61 61 62 62 62 63 63 63 64 64 65 66 67 69 71 73 73 73 73 74 75 75 74 74 74 74 75 75 75 77 77 77 76 76 76 76 75 75 75 74 74 74 75 76 76 76 76 77 78 79 80 81 81 82 82 82 83 83 84 84 84 83 83 83 83 83 83 83 82 82 82 81 80 80 79 77 76 76 76 76 76 76 76 76
62 63 63 64 65 65 66 67 67 67 67 68 68 69 70 72 74 76 76 76 76 76 77 77 77 76 75 76 76 75 76 77 78 78 78 76 76 76 76 77 77 76 76 76 77 77 77 77 77 77 78 79 80 81 81 82 82 82 83 84 84 84 84 84 85 85 85 85 85 85 85 84 83 83 82 82 81 79 78 78 78 77 77 78 78 77
66 67 67 67 68 69 70 71 71 72 72 72 72 72 73 75 77 79 80 79 78 78 78 78 78 77 77 76 75 75 76 77 79 81 78 75 75 77 78 79 79 78 77 77 77 77 76 76 76 77 77 78 79 79 80 80 80 81 81 82 83 84 84 84 85 86 85 85 85 85 85 85 84 83 83 82 82 81 80 79 79 79 79 79 79 79
70 71 71 72 73 73 74 74 75 76 76 76 76 76 76 78 80 81 82 81 79 78 79 79 79 78 77 76 75 75 76 77 81 83 77 72 75 79 79 79 79 78 77 77 77 76 75 75 74 74 75 75 76 77 77 76 77 77 78 79 81 82 82 83 84 85 84 84 84 84 83 83 82 82 81 81 81 80 80 80 80 80 80 80 80 80
74 74 75 76 76 77 77 77 78 79 79 78 79 79 78 80 82 83 84 82 79 79 79 79 79 78 76 76 75 75 76 76 80 82 78 75 78 79 78 79 79 77 77 76 75 74 73 73 72 72 72 72 72 73 73 72 72 73 74 75 76 78 79 80 82 82 81 81 81 81 81 81 80 79 79 78 78 78 78 79 79 79 79 80 80 80
77 77 78 79 79 80 80 80 80 81 81 80 81 81 81 82 84 84 83 81 80 80 79 79 78 77 75 74 74 74 74 74 76 79 79 78 77 77 76 77 75 74 73 72 71 71 70 69 69 68 68 68 68 68 68 68 67 67 68 69 70 71 73 75 76 76 76 76 76 76 76 76 75 74 74 74 74 74 74 75 75 76 76 77 78 79
80 80 80 82 82 82 83 83 83 83 83 81 82 83 82 83 83 82 82 81 81 79 77 76 75 74 72 71 71 71 72 71 72 74 76 76 75 74 73 72 70 69 68 67 67 66 66 65 65 64 64 64 64 64 63 63 62 62 63 64 64 66 68 69 69 69 70 70 70 70 71 71 71 70 69 69 70 69 69 70 71 72 72 73 75 77
82 82 83 83 84 84 84 85 84 83 82 81 82 82 81 81 81 80 80 80 79 76 75 73 72 70 69 69 69 69 69 69 69 69 71 72 72 71 70 69 68 67 66 65 65 64 63 62 61 61 61 61 61 60 60 60 59 59 59 60 61 63 64 65 66 66 67 66 66 67 68 68 68 67 66 66 67 66 65 66 67 67 68 69 71 73
83 83 83 83 84 83 84 84 83 82 81 80 80 79 78 77 77 76 76 76 74 73 72 71 69 68 67 67 68 68 67 67 68 68 68 69 70 70 69 68 67 66 65 64 64 63 61 60 59 59 59 59 59 59 58 57 56 55 56 57 60 62 63 63 64 64 65 64 64 64 65 64 63 63 63 63 63 62 62 62 63 63 63 64 66 69
83 82 82 82 82 82 81 81 81 80 79 78 76 74 73 73 73 72 72 72 71 70 69 67 67 66 66 65 66 66 66 67 67 67 67 67 68 68 68 68 67 66 64 64 63 62 60 59 58 58 57 58 57 57 56 55 53 53 54 57 59 60 61 62 62 62 62 61 61 61 62 61 60 59 59 60 59 59 58 58 59 60 60 61 63 64
81 80 80 79 79 79 79 79 80 78 76 74 72 70 70 69 69 68 67 67 67 67 66 65 64 64 64 64 64 64 66 66 66 66 66 66 66 67 67 67 66 66 65 63 62 61 60 59 58 57 56 56 57 56 54 53 52 52 54 56 57 59 60 61 60 59 59 58 59 59 60 59 57 56 57 58 57 56 55 56 57 57 58 59 60 61
76 76 76 76 75 75 76 76 76 75 73 71 69 68 67 66 65 64 63 62 63 63 63 63 63 62 62 63 63 64 64 65 66 66 65 64 64 64 64 65 65 66 65 64 62 60 59 57 55 54 54 55 56 55 53 51 50 51 52 54 56 57 58 57 55 55 55 56 56 57 57 56 54 53 55 56 55 53 53 53 54 55 56 57 58 59
70 71 72 71 70 70 71 72 71 70 69 68 68 68 66 64 62 62 60 60 60 60 61 61 62 61 61 62 63 63 63 64 64 64 64 63 63 63 63 64 64 63 63 62 61 60 58 56 54 54 53 53 54 53 51 50 51 51 51 53 54 54 53 51 51 52 52 52 53 54 53 52 51 51 52 53 52 51 51 51 52 53 54 55 55 57
65 66 66 65 65 66 67 68 67 66 66 67 67 66 65 63 62 61 60 59 59 59 60 60 61 60 60 60 61 61 61 62 62 62 62 62 62 62 62 62 62 60 59 59 58 58 57 55 55 54 54 53 54 52 50 50 52 52 51 50 50 50 49 49 50 51 51 51 52 53 53 51 50 50 50 50 51 51 50 50 51 53 53 53 53 54
61 62 61 61 62 63 64 64 63 62 64 66 66 64 63 63 61 61 60 60 59 59 59 58 58 58 58 58 58 58 59 59 60 59 59 59 60 60 60 60 59 58 57 57 57 57 55 54 53 53 53 53 54 53 51 50 50 49 48 47 47 47 47 48 50 51 52 52 53 54 52 50 49 49 49 50 52 51 50 51 52 52 52 52 53 54
59 58 58 58 59 60 61 61 61 61 62 63 63 62 61 61 60 59 59 59 59 59 58 56 56 56 56 56 56 56 56 56 57 57 56 56 57 58 58 58 57 57 57 57 57 55 54 54 53 52 52 53 54 53 51 49 48 47 46 45 45 45 46 47 49 51 52 53 53 52 50 49 49 49 50 52 52 51 51 52 53 53 53 53 54 56
Wind_Direction
264 264 265 265 265 264 264 263 263 263 263 263 262 262 262 261 261 262 261 261 262 261 261 260 259 259 260 260 260 259 260 261 263 265 266 266 266 266 266 267 268 268 269 269 269 269 270 269 269 270 270 270 270 270 271 270 270 270 270 269 267 265 264 263 263 262 261 260 259 258 259 259 260 261 262 262 261 259 257 254 251 248 246 244 243 241
264 264 264 263 262 261 261 261 261 261 261 260 260 260 260 261 261 261 261 261 261 261 261 259 258 258 258 259 259 259 260 260 261 263 265 267 267 267 268 268 269 269 269 269 269 269 269 269 268 269 269 270 270 270 270 269 269 270 270 267 264 262 260 259 258 258 257 257 257 257 258 259 260 260 259 258 257 254 252 249 247 244 242 241 241 240
264 264 263 262 261 260 260 260 260 259 259 259 259 259 260 261 261 261 261 261 261 261 260 259 258 258 258 259 260 260 261 261 261 262 263 266 267 268 269 269 270 270 270 269 269 269 268 267 267 267 268 269 270 270 270 270 270 270 268 266 262 260 258 257 257 256 256 256 256 257 257 257 258 257 256 254 253 250 248 245 243 241 239 238 239 240
264 264 262 261 260 260 260 260 260 259 258 258 258 259 259 260 260 260 260 261 260 260 259 258 258 259 258 259 261 261 261 261 262 261 262 264 266 267 267 268 268 268 268 268 269 269 268 268 268 268 269 270 271 271 273 274 273 270 268 266 264 261 260 258 257 257 257 257 257 257 257 256 255 254 252 251 249 248 246 243 240 237 235 235 238 241
264 263 261 260 260 259 259 259 259 258 258 258 258 258 259 259 259 260 259 259 259 258 259 259 259 259 259 260 261 261 260 260 260 261 261 261 263 264 265 265 265 266 266 267 268 269 269 270 271 271 272 273 273 274 277 278 275 272 270 269 267 265 264 262 261 260 258 256 256 257 257 256 254 251 250 248 247 246 245 242 240 237 235 235 237 241
263 262 261 260 259 258 257 257 257 258 258 257 258 258 259 259 259 259 258 257 257 258 259 260 259 260 260 260 259 259 259 259 258 259 259 259 260 261 263 263 263 264 265 267 268 268 269 269 270 270 270 271 273 274 276 276 275 273 273 272 270 268 267 266 264 263 260 256 255 255 256 255 254 252 250 248 246 245 244 243 242 240 238 237 238 241
262 261 260 260 259 259 258 258 259 259 259 258 258 259 259 259 259 260 259 257 257 258 259 258 259 260 260 259 259 258 259 259 259 258 258 258 259 259 261 262 263 263 264 264 265 265 266 266 266 267 268 269 271 273 273 272 271 271 271 272 271 270 269 267 265 263 261 258 256 255 255 255 254 253 252 250 248 247 246 245 244 243 241 240 241 243
261 260 259 258 258 258 258 259 259 260 259 258 259 259 259 259 259 259 260 259 260 260 258 257 259 261 259 259 259 258 258 259 260 259 259 259 259 259 260 261 262 263 263 263 262 262 263 264 264 265 267 269 270 271 271 270 269 268 268 268 270 272 270 268 266 264 261 259 256 256 256 256 254 253 253 253 251 249 247 246 246 245 243 243 244 244
263 261 260 259 258 258 258 259 258 259 259 259 259 259 259 259 259 259 259 259 260 260 258 257 258 261 260 260 260 260 259 259 260 261 260 260 260 260 261 262 262 263 263 263 262 261 261 261 262 263 264 266 267 268 269 268 269 269 268 267 269 270 270 269 269 267 264 261 258 258 258 258 255 253 252 252 252 251 249 248 247 247 246 245 245 245
263 262 261 261 260 260 260 259 259 259 260 261 260 260 261 260 260 260 259 260 260 260 260 259 258 261 263 263 263 263 262 261 261 261 260 261 261 261 261 261 262 262 262 263 263 262 261 260 261 262 262 263 264 265 266 267 266 267 267 268 267 266 266 268 267 267 267 264 261 260 261 261 259 256 253 251 250 250 250 250 249 249 249 247 246 246
263 263 262 262 262 262 262 262 261 261 261 262 262 262 262 262 261 261 261 261 261 260 261 262 260 260 263 263 262 264 265 264 263 261 261 261 260 260 259 260 260 261 262 263 263 263 262 260 260 260 261 261 262 263 263 263 262 263 264 265 265 264 263 263 263 264 264 264 262 260 261 262 262 260 257 253 251 249 249 249 250 250 250 249 248 247
264 263 263 263 262 262 262 262 262 262 262 263 263 263 262 262 262 261 261 262 261 261 260 261 261 259 260 262 262 262 265 266 264 263 262 261 260 259 259 258 259 259 260 262 263 264 264 263 261 260 260 260 260 261 261 260 260 260 260 261 262 262 262 261 261 260 260 260 261 260 260 260 261 261 259 257 254 252 250 248 249 250 250 250 249 247
265 265 265 264 263 262 262 262 261 261 261 262 262 262 263 263 262 261 262 262 262 261 260 260 261 260 259 261 262 262 262 263 264 263 263 262 261 261 260 259 258 258 259 260 262 263 264 264 263 262 261 260 259 259 259 259 259 258 258 259 259 260 260 260 258 257 256 256 257 258 258 259 259 260 260 258 256 254 253 250 249 248 248 249 249 247
267 266 266 265 264 263 262 262 261 261 261 261 261 262 262 262 262 261 261 261 261 262 261 260 260 261 260 260 261 260 260 261 262 263 263 262 262 261 261 260 259 259 258 259 260 261 262 262 263 263 262 261 260 259 259 258 257 257 257 258 258 258 259 259 257 256 255 254 254 254 255 256 256 257 258 257 257 255 254 253 251 249 248 248 248 248
267 267 266 265 264 263 262 262 262 262 261 260 260 262 261 261 262 261 261 260 259 260 260 260 260 260 260 260 259 259 260 260 261 262 262 262 262 262 261 261 260 259 258 258 258 259 260 261 261 262 262 261 260 260 259 258 257 256 255 255 255 255 256 257 257 255 254 252 252 252 252 253 253 253 254 254 255 255 254 253 252 251 250 249 249 248
267 266 265 265 264 263 262 262 262 262 262 261 261 261 261 261 263 263 262 261 260 260 261 260 259 260 260 259 258 259 260 260 260 261 261 262 262 261 261 261 260 259 259 258 258 258 259 260 260 261 261 261 261 260 259 258 258 257 257 256 256 255 254 255 255 255 254 253 251 251 251 252 252 252 252 252 252 253 253 253 253 252 251 251 250 249
266 265 264 263 263 263 262 261 261 261 261 262 261 261 261 262 264 264 262 262 262 263 263 262 261 261 261 260 259 259 259 259 259 260 260 260 260 260 261 261 260 260 259 259 258 258 258 258 259 260 261 261 261 261 260 259 259 259 258 258 258 257 256 255 254 254 254 253 252 252 252 252 253 252 252 252 252 252 252 252 252 252 251 251 250 250
265 264 263 263 262 263 263 262 262 261 261 262 262 261 262 262 262 264 264 264 263 263 263 263 262 261 262 262 261 260 260 260 259 259 259 260 260 260 260 260 260 260 260 259 259 259 259 258 258 259 260 260 260 260 260 260 260 260 260 260 259 259 258 257 256 256 256 255 255 253 252 252 252 252 252 252 252 252 252 251 251 251 251 250 250 250
263 263 264 263 263 262 263 263 263 263 263 263 263 263 264 263 262 263 264 264 265 264 263 263 262 262 263 262 260 260 260 260 260 260 259 260 260 260 260 260 260 260 261 261 260 259 260 260 259 257 258 259 260 260 260 260 260 260 260 260 260 259 259 259 259 258 257 257 257 256 254 252 252 251 251 252 252 251 251 251 251 251 251 251 251 251
263 263 263 264 264 263 262 263 264 264 264 264 264 265 265 265 265 265 264 264 265 265 264 264 264 265 264 262 261 260 260 260 259 259 259 259 259 259 260 260 260 260 261 261 260 260 259 260 260 259 258 258 259 259 259 258 258 258 259 259 259 259 259 259 260 259 259 258 257 257 256 255 254 252 252 252 252 251 251 251 250 250 250 251 251 251
262 262 263 263 264 264 264 263 264 264 264 264 264 264 265 266 266 267 267 267 266 265 264 263 263 263 263 263 263 262 260 259 258 258 258 258 258 258 258 258 259 259 259 260 260 260 259 258 259 259 259 259 259 259 259 258 257 256 257 258 258 258 258 259 259 259 259 259 258 257 257 256 255 254 253 253 253 252 251 250 250 250 250 250 249 249
262 262 262 263 264 265 265 266 265 265 266 266 266 266 266 266 266 266 267 267 267 266 266 264 261 260 261 262 263 262 261 260 259 259 258 258 257 257 257 257 257 257 257 258 258 259 258 258 258 258 258 258 259 259 260 260 259 258 257 257 258 258 258 258 258 258 258 258 258 258 257 256 255 254 253 253 253 253 252 250 250 249 249 249 249 249
262 262 262 262 263 265 267 268 267 268 268 268 269 268 268 268 268 267 265 264 265 266 266 265 262 260 261 262 262 262 263 263 262 261 259 258 257 256 256 256 257 257 257 257 257 258 258 258 258 258 257 257 258 259 260 260 261 261 260 259 258 259 258 258 257 257 257 257 257 257 257 256 255 254 253 252 252 252 252 251 251 250 250 249 249 249
262 262 262 263 264 265 267 268 268 269 269 269 270 270 270 270 270 271 270 267 266 266 264 262 261 261 262 262 262 263 265 265 265 263 261 259 257 256 255 255 257 258 259 259 259 259 259 259 259 260 259 259 259 260 261 261 262 262 262 262 260 259 258 258 257 256 256 256 257 256 256 256 255 254 253 252 252 252 252 252 251 251 250 250 249 249
262 262 263 264 265 266 267 268 268 269 269 269 270 269 270 270 271 272 272 272 271 271 269 266 264 264 263 262 264 265 265 264 264 264 263 262 261 259 258 256 257 258 259 261 262 263 263 263 264 264 264 263 262 262 263 264 264 263 263 263 262 261 260 259 258 257 255 255 256 255 255 255 255 253 252 252 252 253 252 252 252 251 251 250 250 250
263 263 264 265 266 266 266 267 268 268 269 269 269 269 269 269 269 270 270 271 272 272 272 272 271 269 268 266 266 266 265 264 263 263 263 263 263 263 262 261 260 259 259 260 262 263 265 266 266 267 267 266 265 264 264 264 265 265 265 264 264 263 262 261 260 258 257 257 257 256 255 255 255 253 253 253 253 254 253 252 252 252 251 251 251 251
263 264 265 265 265 266 265 266 266 266 267 267 267 268 268 268 269 269 268 269 270 269 270 271 270 270 271 270 268 266 266 265 265 265 265 264 264 264 263 263 262 262 261 261 261 262 262 263 264 265 266 266 265 264 264 264 263 263 264 264 264 264 263 263 261 259 258 258 259 259 257 256 255 254 252 251 251 252 252 252 251 251 251 251 251 251
264 264 265 265 265 265 264 264 264 265 266 266 265 265 266 266 267 267 268 267 267 267 268 268 266 266 268 269 268 267 267 267 266 266 265 265 265 264 263 263 262 262 262 262 262 262 262 262 262 262 263 263 264 264 264 264 264 263 263 263 263 263 262 262 262 261 260 259 259 259 259 257 256 255 253 252 251 251 251 252 252 251 251 250 250 250
265 264 264 264 264 264 264 264 263 264 264 265 265 265 265 265 265 266 266 266 265 266 266 266 265 265 267 268 268 267 267 266 264 264 263 264 264 265 265 264 264 263 262 262 262 262 262 262 262 262 262 262 262 263 263 264 264 264 264 263 263 262 262 261 262 262 262 261 260 260 260 260 259 257 255 254 253 253 252 253 253 253 253 252 251 250
265 264 264 264 264 264 264 264 263 262 262 263 264 265 265 266 267 266 266 266 266 266 266 266 267 267 267 267 268 267 266 265 265 265 264 263 263 264 264 264 264 264 264 264 263 263 263 263 263 263 264 264 264 263 263 263 263 264 264 264 264 264 263 263 263 263 263 263 263 262 262 262 261 260 258 256 254 254 254 254 254 254 254 254 253 252
264 265 265 264 264 264 264 264 263 262 261 262 263 265 267 269 269 268 268 267 267 268 269 269 269 269 268 268 268 268 267 267 267 267 266 265 264 264 264 264 264 264 264 264 264 264 264 264 264 264 264 265 265 265 265 265 264 264 264 264 263 264 264 264 264 264 264 264 264 263 263 263 263 262 261 259 258 257 256 256 256 256 255 255 255 254
265 265 265 264 264 264 264 264 264 264 263 263 265 267 268 269 269 269 270 270 271 271 270 270 270 270 269 269 270 269 269 269 269 269 268 268 266 265 264 264 264 264 264 264 264 264 263 263 264 264 264 264 264 265 266 266 265 265 265 264 264 264 264 264 264 264 263 263 263 263 263 263 263 263 263 262 261 260 259 258 258 258 258 257 256 255
265 265 264 264 264 263 263 264 266 266 266 266 267 268 269 269 270 271 271 272 272 272 272 272 272 271 270 271 271 271 271 270 270 270 270 269 268 267 266 265 264 264 264 264 263 263 263 263 262 262 262 263 263 263 264 265 265 265 265 265 264 264 264 264 264 263 263 262 262 262 262 262 263 263 264 264 263 262 261 260 260 259 259 260 259 258
264 264 264 264 265 264 264 265 266 267 268 269 268 268 269 270 271 272 271 272 272 272 272 272 272 272 272 272 272 272 272 272 271 270 270 269 269 268 268 267 266 265 264 264 264 263 263 263 262 262 262 262 262 262 262 263 263 264 264 264 264 264 264 264 264 264 263 263 262 262 262 262 262 262 263 263 263 263 262 262 261 261 261 260 260 260
264 264 265 265 265 265 266 266 266 267 269 269 269 269 269 269 270 270 271 271 272 272 273 273 273 272 272 272 272 272 273 273 272 271 271 270 270 269 269 268 267 266 265 265 264 263 262 262 263 263 263 262 262 262 262 262 262 262 263 263 263 263 263 264 264 263 263 263 263 263 262 262 262 262 262 263 263 263 263 263 262 262 262 261 261 261
265 266 266 267 267 267 267 267 267 268 268 268 268 268 268 269 269 269 270 271 271 272 272 273 273 273 273 273 273 273 273 273 273 272 271 271 270 270 269 268 267 267 266 265 264 263 263 263 263 262 262 262 262 262 262 262 262 262 262 262 263 263 263 263 263 263 263 263 263 263 263 263 263 263 263 264 264 264 264 264 263 263 263 263 262 262
265 266 266 267 267 267 268 268 268 268 268 268 268 268 269 269 270 270 271 271 271 272 272 273 273 273 273 273 274 274 274 273 273 272 271 270 270 270 270 269 268 267 266 265 264 264 264 264 263 263 262 262 261 261 261 261 261 262 262 262 262 262 263 263 263 263 263 263 263 263 263 263 263 264 265 265 265 265 265 264 264 264 264 264 264 264
264 265 266 266 267 267 268 268 269 270 270 270 270 270 271 271 272 272 272 272 272 273 274 274 274 274 274 274 274 274 273 273 272 271 270 271 271 271 270 269 268 268 267 267 266 265 265 264 264 263 263 263 262 262 261 261 261 261 261 262 262 262 262 262 262 262 262 262 262 262 263 263 263 263 264 264 265 265 265 265 265 264 264 264 264 265
265 266 267 267 267 268 268 269 270 270 271 271 272 272 272 272 273 273 273 274 274 275 275 275 275 275 275 274 274 273 273 272 272 271 271 271 270 269 269 269 270 270 270 269 269 268 267 266 265 265 264 263 263 263 262 261 261 261 261 261 261 261 261 261 261 260 261 261 261 261 261 262 262 262 262 263 263 264 264 264 264 264 264 264 264 264
267 267 268 268 269 269 270 270 271 271 271 272 273 273 273 273 273 273 274 275 276 276 275 275 275 275 274 274 273 272 272 272 272 273 273 271 269 269 270 270 271 271 271 271 271 270 270 268 267 266 265 264 263 263 262 261 261 260 260 259 259 259 260 260 260 260 260 260 260 261 261 261 261 261 262 262 262 263 263 263 264 263 263 263 263 263
268 269 270 270 270 270 271 271 271 271 272 273 273 274 274 274 274 274 275 276 276 275 275 275 275 274 274 273 273 272 272 272 272 273 273 272 271 271 271 271 271 272 272 271 271 270 270 269 268 267 266 265 263 263 262 261 260 259 259 258 258 259 259 259 260 260 260 260 261 261 261 261 261 261 261 262 262 262 262 262 262 262 262 262 262 262
269 270 270 270 271 271 272 272 272 272 273 273 273 273 274 274 274 275 276 276 276 275 275 275 275 275 274 274 274 273 272 272 271 272 273 274 274 273 272 272 272 272 271 271 270 270 269 268 268 267 266 265 264 263 262 261 260 259 258 258 258 258 258 259 259 260 260 260 260 260 260 261 261 260 260 260 260 260 260 260 260 260 260 260 260 260
270 270 271 271 272 272 273 273 273 273 274 274 273 273 274 274 275 275 275 275 275 276 276 275 275 275 275 275 274 274 273 273 272 272 272 273 274 274 274 273 273 272 272 271 271 269 268 268 267 266 266 265 264 264 263 262 261 261 260 259 259 258 258 258 258 258 258 258 258 258 258 259 259 259 259 259 259 259 259 259 259 259 259 258 259 259
271 271 272 272 273 273 273 274 274 274 274 274 273 273 274 274 274 275 275 275 275 276 276 276 275 275 274 274 274 274 274 273 273 272 272 272 273 273 274 273 273 273 272 271 270 270 269 268 267 266 266 266 265 264 264 263 262 262 262 261 260 259 258 258 257 257 257 258 258 258 259 259 259 259 259 259 259 259 259 259 259 259 259 258 258 259
272 273 273 274 274 274 275 275 275 275 274 274 274 274 274 274 274 274 274 275 275 275 275 275 275 274 274 274 273 273 273 273 272 272 272 272 272 273 273 273 273 272 271 270 270 269 269 268 267 267 266 266 265 265 264 264 263 262 261 260 259 258 258 258 257 257 257 258 258 258 259 259 258 258 258 258 257 257 257 257 258 258 258 258 258 258
273 274 274 274 274 275 275 276 276 276 275 275 275 275 274 274 274 273 274 274 274 274 274 274 274 274 273 273 273 273 273 273 272 272 271 271 271 271 272 272 272 272 271 269 268 268 267 267 267 267 268 268 267 266 265 264 263 261 259 258 258 257 257 256 257 257 257 257 257 257 257 258 258 257 257 257 257 256 256 256 256 256 257 257 257 258
273 274 274 274 274 274 274 274 275 275 276 277 277 276 275 275 274 274 274 274 274 274 274 274 274 273 273 273 272 272 271 272 272 271 271 270 270 269 269 269 269 269 270 270 270 269 269 268 268 268 267 267 267 266 266 264 262 260 258 257 257 256 256 257 257 258 257 257 257 257 257 258 258 257 256 257 257 256 255 254 254 254 254 255 255 256
273 273 273 273 274 274 274 274 275 276 277 277 277 277 276 276 275 275 275 274 274 274 273 273 272 272 271 271 271 270 270 270 270 270 270 270 269 268 268 267 267 267 268 269 270 271 271 271 270 269 267 265 264 264 264 264 262 260 257 256 255 256 257 258 258 258 257 257 257 258 257 257 256 255 255 256 256 255 254 254 253 253 253 253 254 255
273 273 273 274 274 274 275 275 276 277 277 277 277 276 277 277 277 277 276 275 274 272 271 271 270 270 270 269 270 270 269 269 269 269 269 269 269 269 268 269 269 269 269 269 269 269 269 268 267 267 266 266 265 264 263 261 260 259 258 257 257 258 258 259 259 259 259 258 258 257 256 256 255 255 255 256 256 255 254 254 253 253 254 254 255 256
274 274 274 275 275 275 275 275 276 276 275 275 275 275 276 277 277 277 276 275 274 273 272 271 271 272 271 271 270 270 270 269 269 269 268 268 269 269 268 269 269 269 269 268 267 266 266 265 264 263 263 263 264 264 263 261 260 260 260 260 259 259 259 258 258 259 259 258 257 257 256 256 256 256 256 255 254 254 254 253 253 254 254 255 255 255
275 275 276 276 276 276 276 276 276 276 275 275 275 276 276 276 276 276 275 275 275 275 275 274 273 272 272 271 270 269 269 268 268 268 268 267 267 267 266 266 266 266 266 265 265 265 265 265 264 263 262 261 262 262 264 265 266 266 265 263 261 260 258 257 257 257 258 258 258 258 258 258 257 256 254 253 252 251 251 251 252 252 252 251 251 252
Height
10595 10597 10598 10599 10599 10598 10598 10599 10599 10599 10600 10600 10600 10600 10600 10600 10601 10604 10605 10606 10606 10606 10608 10608 10607 10606 10606 10606 10607 10607 10606 10606 10605 10604 10604 10604 10605 10606 10606 10606 10607 10607 10607 10608 10607 10607 10608 10608 10607 10606 10606 10607 10608 10611 10612 10613 10613 10613 10615 10616 10617 10617 10617 10618 10618 10619 10620 10621 10622 10623 10623 10624 10625 10626 10627 10627 10628 10629 10630 10632 10633 10634 10634 10635 10637 10638
10590 10592 10594 10594 10594 10593 10593 10594 10595 10595 10595 10595 10595 10595 10595 10596 10598 10600 10601 10602 10602 10602 10604 10604 10602 10603 10603 10602 10602 10602 10603 10602 10601 10601 10599 10600 10601 10601 10602 10603 10603 10603 10603 10603 10603 10603 10603 10603 10602 10602 10602 10602 10604 10606 10607 10608 10609 10609 10610 10611 10612 10612 10613 10613 10614 10615 10616 10617 10618 10618 10619 10620 10621 10623 10624 10624 10625 10626 10627 10628 10629 10630 10631 10632 10633 10635
10585 10588 10589 10589 10588 10587 10587 10588 10589 10590 10590 10590 10591 10591 10591 10592 10594 10596 10597 10599 10599 10597 10600 10600 10597 10598 10599 10597 10597 10598 10599 10598 10598 10598 10596 10596 10596 10597 10598 10599 10599 10598 10598 10598 10598 10599 10598 10598 10598 10598 10598 10599 10600 10602 10603 10604 10605 10605 10605 10606 10607 10608 10608 10609 10610 10611 10612 10613 10614 10615 10616 10617 10618 10619 10620 10621 10622 10622 10624 10625 10626 10627 10628 10629 10630 10631
10581 10583 10583 10583 10583 10582 10582 10583 10584 10585 10585 10586 10586 10586 10587 10589 10589 10591 10593 10594 10594 10593 10594 10594 10592 10593 10594 10593 10593 10594 10594 10594 10593 10593 10594 10592 10592 10592 10593 10594 10594 10594 10594 10593 10594 10594 10593 10593 10594 10594 10595 10596 10597 10598 10600 10601 10602 10602 10601 10601 10602 10603 10604 10606 10607 10608 10609 10610 10610 10611 10613 10614 10615 10616 10617 10618 10618 10619 10620 10622 10623 10624 10625 10626 10627 10628
10576 10578 10578 10578 10578 10577 10578 10577 10578 10579 10580 10581 10581 10581 10583 10584 10584 10586 10589 10589 10588 10587 10588 10589 10587 10586 10589 10590 10589 10589 10589 10589 10588 10588 10589 10589 10588 10587 10587 10589 10589 10589 10589 10589 10590 10590 10589 10590 10590 10591 10591 10592 10593 10595 10597 10598 10598 10598 10598 10598 10598 10600 10601 10602 10603 10605 10606 10606 10607 10608 10609 10610 10611 10612 10613 10614 10615 10616 10617 10618 10620 10621 10622 10623 10624 10625
10572 10572 10572 10573 10573 10572 10572 10572 10573 10574 10575 10576 10576 10576 10578 10579 10579 10581 10584 10584 10582 10581 10583 10584 10580 10580 10584 10584 10584 10584 10582 10583 10584 10583 10584 10584 10583 10583 10582 10583 10584 10585 10585 10585 10585 10585 10585 10586 10586 10587 10587 10588 10590 10592 10594 10594 10595 10595 10594 10594 10595 10596 10598 10598 10600 10601 10602 10602 10603 10604 10605 10606 10607 10608 10610 10611 10612 10613 10614 10615 10616 10618 10619 10620 10621 10621
10567 10567 10567 10568 10568 10567 10567 10568 10569 10569 10570 10571 10571 10572 10573 10574 10575 10576 10578 10577 10576 10577 10580 10578 10573 10575 10579 10578 10578 10579 10577 10577 10578 10578 10579 10579 10579 10579 10578 10578 10579 10580 10580 10581 10580 10581 10581 10581 10582 10582 10583 10584 10586 10588 10590 10591 10591 10591 10591 10591 10591 10593 10594 10595 10596 10597 10598 10599 10600 10601 10602 10603 10604 10605 10606 10607 10609 10610 10611 10612 10613 10614 10615 10616 10617 10618
10562 10562 10563 10563 10563 10562 10562 10564 10566 10564 10564 10566 10567 10568 10568 10570 10571 10571 10572 10571 10571 10573 10574 10572 10569 10569 10572 10571 10572 10573 10572 10571 10572 10573 10574 10573 10574 10574 10574 10574 10574 10574 10575 10575 10576 10576 10576 10576 10577 10578 10579 10580 10582 10583 10585 10587 10587 10588 10588 10587 10588 10589 10590 10592 10593 10593 10594 10595 10596 10597 10598 10599 10600 10601 10602 10604 10605 10606 10607 10608 10609 10610 10611 10613 10614 10614
10556 10557 10558 10558 10557 10557 10559 10560 10561 10560 10559 10561 10563 10563 10564 10565 10566 10567 10567 10566 10567 10567 10566 10567 10567 10564 10565 10566 10566 10566 10566 10567 10568 10569 10568 10568 10569 10570 10570 10570 10570 10569 10569 10569 10570 10571 10572 10572 10572 10574 10575 10575 10577 10578 10580 10582 10584 10584 10583 10584 10585 10586 10587 10588 10589 10590 10590 10591 10593 10594 10594 10595 10596 10597 10599 10600 10601 10603 10604 10605 10606 10606 10607 10609 10609 10610
10550 10551 10552 10552 10552 10552 10554 10555 10556 10556 10555 10556 10558 10558 10559 10561 10561 10562 10562 10561 10562 10562 10560 10562 10564 10561 10559 10561 10561 10559 10559 10561 10563 10564 10563 10563 10564 10565 10565 10565 10564 10564 10563 10562 10563 10565 10567 10568 10568 10569 10570 10571 10572 10573 10575 10578 10579 10579 10579 10580 10581 10582 10583 10585 10586 10586 10587 10588 10589 10590 10590 10591 10592 10593 10594 10596 10597 10598 10599 10601 10602 10603 10603 10604 10605 10606
10545 10546 10546 10547 10547 10547 10548 10550 10550 10551 10551 10551 10553 10553 10553 10555 10555 10556 10556 10556 10557 10556 10556 10557 10558 10558 10555 10555 10556 10554 10552 10555 10557 10558 10558 10558 10559 10559 10559 10559 10559 10559 10558 10557 10557 10558 10561 10563 10563 10564 10565 10566 10567 10568 10570 10572 10574 10574 10574 10575 10576 10577 10579 10581 10582 10583 10583 10584 10585 10586 10586 10587 10588 10589 10590 10591 10593 10594 10595 10596 10597 10598 10599 10600 10601 10602
10539 10540 10541 10542 10541 10541 10543 10544 10545 10545 10546 10546 10547 10546 10547 10548 10549 10550 10550 10550 10551 10550 10551 10551 10552 10554 10551 10549 10551 10550 10547 10548 10549 10551 10551 10552 10553 10553 10554 10554 10553 10554 10553 10552 10551 10552 10554 10556 10557 10558 10560 10561 10562 10562 10564 10567 10568 10569 10569 10570 10571 10572 10574 10576 10578 10579 10579 10580 10580 10581 10582 10583 10584 10585 10586 10587 10588 10590 10591 10592 10593 10594 10595 10596 10596 10597
10532 10534 10535 10535 10535 10536 10537 10538 10539 10540 10540 10541 10540 10539 10541 10541 10541 10544 10544 10544 10545 10543 10545 10546 10545 10547 10546 10544 10546 10545 10542 10542 10542 10543 10545 10545 10546 10546 10547 10548 10548 10549 10549 10548 10547 10548 10548 10549 10550 10551 10554 10555 10556 10557 10559 10561 10563 10563 10563 10565 10566 10567 10569 10570 10572 10574 10574 10575 10576 10576 10577 10578 10579 10580 10581 10582 10583 10585 10586 10587 10589 10590 10590 10591 10592 10593
10526 10527 10528 10528 10529 10529 10530 10531 10533 10533 10534 10535 10534 10533 10536 10534 10533 10538 10538 10538 10539 10536 10537 10541 10540 10541 10540 10539 10540 10538 10536 10536 10535 10536 10538 10538 10540 10540 10541 10542 10542 10543 10544 10543 10542 10543 10543 10543 10543 10544 10546 10548 10549 10551 10553 10555 10557 10556 10557 10560 10560 10561 10563 10564 10566 10568 10569 10570 10570 10571 10572 10573 10574 10575 10576 10577 10578 10579 10581 10582 10584 10585 10586 10586 10587 10588
10519 10520 10520 10521 10522 10522 10523 10525 10525 10526 10526 10528 10527 10527 10529 10526 10525 10531 10531 10531 10532 10529 10530 10535 10535 10534 10533 10532 10533 10530 10530 10530 10529 10530 10531 10532 10533 10534 10534 10534 10535 10536 10537 10537 10537 10537 10537 10537 10537 10538 10539 10540 10542 10544 10546 10548 10550 10550 10551 10553 10554 10555 10556 10557 10559 10560 10562 10563 10564 10565 10566 10567 10568 10570 10571 10572 10573 10574 10575 10577 10578 10579 10581 10581 10582 10583
10511 10512 10512 10513 10514 10514 10516 10517 10518 10519 10519 10519 10521 10521 10520 10519 10520 10523 10523 10523 10523 10523 10525 10528 10528 10527 10525 10524 10525 10524 10523 10523 10522 10523 10524 10525 10526 10526 10526 10526 10527 10528 10529 10530 10530 10531 10531 10531 10531 10531 10532 10533 10535 10537 10539 10541 10542 10543 10544 10545 10547 10548 10549 10550 10552 10553 10554 10556 10558 10559 10560 10561 10563 10564 10565 10566 10567 10568 10569 10570 10572 10573 10574 10576 10577 10577
10503 10504 10504 10505 10506 10506 10508 10509 10510 10512 10511 10511 10514 10513 10512 10514 10514 10513 10515 10516 10516 10517 10519 10520 10522 10521 10516 10516 10518 10517 10516 10516 10516 10516 10517 10517 10518 10518 10518 10518 10518 10519 10520 10522 10523 10523 10524 10525 10525 10525 10525 10526 10528 10529 10531 10533 10535 10536 10537 10538 10539 10540 10542 10544 10545 10546 10547 10549 10551 10553 10554 10556 10557 10559 10560 10561 10561 10562 10563 10564 10565 10566 10567 10569 10570 10571
10496 10495 10496 10497 10499 10499 10499 10501 10503 10504 10504 10504 10505 10505 10506 10508 10507 10505 10507 10509 10509 10511 10512 10513 10514 10513 10509 10509 10510 10508 10508 10509 10508 10509 10510 10510 10510 10510 10511 10510 10510 10511 10511 10513 10514 10515 10516 10517 10519 10519 10519 10519 10521 10522 10524 10526 10528 10528 10529 10530 10531 10532 10534 10536 10538 10539 10540 10542 10544 10545 10548 10550 10551 10552 10554 10555 10555 10556 10557 10557 10558 10559 10561 10562 10564 10565
10489 10488 10488 10490 10492 10492 10492 10493 10494 10496 10497 10497 10497 10498 10498 10499 10500 10499 10499 10501 10501 10502 10505 10505 10506 10506 10503 10500 10500 10500 10500 10500 10500 10501 10503 10503 10503 10502 10502 10502 10502 10503 10502 10503 10506 10507 10507 10508 10509 10511 10512 10512 10513 10515 10517 10519 10521 10521 10521 10522 10523 10525 10526 10527 10529 10531 10533 10535 10536 10536 10539 10542 10544 10545 10547 10547 10548 10549 10550 10551 10552 10554 10555 10556 10558 10559
10484 10483 10482 10482 10484 10485 10485 10486 10486 10487 10489 10489 10490 10491 10490 10490 10492 10491 10492 10494 10493 10494 10497 10498 10499 10500 10493 10488 10490 10492 10492 10492 10492 10493 10495 10495 10495 10495 10495 10494 10494 10494 10494 10493 10495 10498 10499 10499 10498 10501 10504 10505 10505 10506 10508 10511 10513 10514 10513 10514 10515 10517 10518 10519 10521 10523 10525 10526 10527 10528 10530 10533 10536 10538 10540 10540 10540 10542 10543 10545 10546 10547 10548 10550 10551 10552
10478 10478 10477 10476 10477 10476 10477 10479 10480 10480 10480 10482 10482 10483 10483 10483 10484 10483 10484 10486 10485 10486 10489 10490 10493 10492 10482 10479 10482 10482 10482 10484 10483 10485 10487 10487 10488 10488 10487 10487 10486 10485 10485 10485 10485 10487 10489 10490 10490 10492 10495 10496 10495 10496 10497 10500 10503 10506 10506 10506 10507 10510 10510 10512 10513 10515 10516 10517 10518 10519 10521 10524 10528 10530 10531 10532 10532 10534 10536 10537 10538 10540 10541 10542 10543 10544
10472 10472 10471 10471 10471 10469 10469 10472 10473 10472 10473 10473 10474 10475 10476 10476 10476 10476 10478 10478 10475 10477 10480 10482 10486 10484 10475 10473 10475 10472 10473 10476 10476 10478 10480 10480 10480 10481 10480 10479 10478 10477 10477 10477 10477 10477 10479 10480 10481 10483 10486 10487 10487 10487 10488 10489 10492 10495 10497 10498 10500 10501 10502 10504 10505 10507 10509 10508 10508 10510 10512 10515 10518 10521 10522 10523 10523 10524 10526 10528 10530 10532 10533 10533 10534 10535
10465 10465 10465 10465 10464 10463 10463 10465 10464 10464 10465 10465 10466 10467 10467 10468 10467 10468 10471 10471 10467 10471 10473 10471 10475 10475 10468 10467 10467 10465 10466 10468 10469 10471 10472 10472 10473 10473 10473 10473 10472 10471 10470 10469 10469 10469 10470 10471 10472 10474 10477 10479 10479 10479 10479 10480 10482 10484 10487 10489 10492 10492 10493 10495 10496 10498 10500 10499 10498 10500 10503 10505 10508 10510 10512 10513 10514 10515 10517 10519 10521 10523 10524 10525 10526 10526
10458 10458 10459 10459 10458 10458 10457 10457 10457 10457 10457 10458 10459 10459 10459 10460 10459 10459 10461 10461 10459 10464 10464 10462 10467 10467 10460 10460 10461 10461 10462 10462 10462 10462 10463 10464 10464 10465 10466 10466 10465 10465 10464 10463 10463 10463 10463 10463 10464 10466 10468 10471 10472 10472 10472 10472 10475 10476 10477 10479 10482 10483 10484 10485 10487 10489 10490 10489 10489 10491 10494 10495 10496 10500 10502 10503 10505 10506 10507 10509 10511 10513 10513 10514 10516 10517
10451 10451 10452 10452 10451 10452 10451 10450 10450 10449 10450 10452 10451 10451 10452 10453 10452 10452 10452 10449 10450 10454 10453 10454 10460 10458 10451 10453 10456 10455 10456 10455 10454 10454 10455 10455 10456 10457 10458 10458 10459 10459 10458 10457 10457 10456 10456 10457 10458 10459 10460 10463 10465 10465 10465 10465 10467 10468 10469 10470 10472 10473 10474 10476 10477 10479 10480 10480 10480 10481 10484 10485 10485 10488 10491 10493 10495 10496 10497 10500 10502 10502 10503 10504 10506 10507
10444 10444 10445 10444 10444 10445 10444 10443 10443 10443 10443 10445 10444 10443 10444 10445 10445 10445 10444 10442 10443 10444 10444 10445 10450 10447 10442 10446 10450 10448 10447 10447 10447 10448 10447 10448 10449 10449 10450 10450 10451 10452 10452 10452 10451 10450 10451 10451 10451 10451 10452 10454 10456 10457 10457 10457 10458 10460 10460 10461 10462 10463 10464 10466 10468 10469 10470 10471 10471 10471 10474 10475 10475 10478 10482 10485 10486 10486 10487 10489 10491 10492 10493 10494 10496 10499
10436 10436 10437 10437 10437 10437 10436 10436 10438 10436 10435 10437 10437 10435 10435 10436 10437 10436 10437 10438 10436 10436 10438 10439 10440 10438 10434 10436 10440 10439 10438 10438 10440 10440 10440 10441 10442 10442 10442 10442 10443 10444 10444 10445 10445 10445 10445 10445 10445 10444 10444 10445 10446 10447 10448 10448 10449 10451 10451 10451 10452 10453 10454 10455 10456 10458 10460 10462 10462 10461 10464 10465 10465 10469 10473 10476 10477 10476 10476 10478 10479 10480 10482 10483 10485 10488
10428 10428 10428 10428 10429 10429 10429 10430 10431 10429 10428 10429 10429 10429 10428 10428 10429 10429 10430 10432 10429 10428 10432 10431 10431 10433 10429 10427 10430 10430 10429 10431 10432 10432 10432 10433 10433 10433 10433 10434 10434 10435 10436 10436 10437 10437 10437 10437 10437 10437 10436 10436 10437 10437 10438 10439 10440 10441 10443 10443 10443 10444 10445 10444 10444 10446 10449 10452 10453 10452 10453 10453 10455 10459 10463 10465 10466 10466 10467 10467 10468 10469 10471 10472 10474 10476
10419 10419 10420 10421 10421 10421 10421 10422 10423 10422 10421 10420 10420 10421 10420 10420 10422 10422 10422 10424 10421 10420 10423 10421 10422 10427 10425 10420 10421 10421 10421 10423 10423 10423 10424 10426 10426 10425 10425 10425 10425 10426 10427 10427 10428 10428 10429 10429 10429 10429 10428 10427 10428 10428 10429 10429 10430 10431 10432 10433 10434 10434 10434 10435 10435 10436 10438 10441 10443 10443 10443 10443 10445 10449 10453 10455 10456 10457 10458 10459 10459 10459 10460 10461 10464 10466
10410 10410 10412 10413 10412 10414 10414 10413 10415 10415 10414 10413 10412 10412 10412 10412 10414 10414 10413 10413 10411 10412 10414 10413 10415 10420 10418 10412 10411 10412 10411 10413 10414 10415 10416 10418 10419 10418 10417 10416 10417 10417 10418 10419 10419 10419 10420 10420 10420 10420 10419 10418 10419 10419 10419 10420 10420 10421 10422 10423 10423 10423 10423 10425 10425 10426 10428 10430 10432 10433 10433 10434 10435 10438 10442 10445 10447 10448 10449 10450 10450 10450 10450 10451 10454 10457
10401 10401 10403 10403 10404 10406 10405 10403 10405 10406 10406 10407 10406 10405 10404 10404 10404 10403 10403 10403 10402 10404 10405 10404 10407 10412 10408 10402 10402 10401 10401 10404 10406 10405 10405 10408 10410 10409 10408 10408 10408 10409 10410 10410 10410 10410 10410 10410 10411 10411 10410 10409 10409 10408 10409 10410 10411 10412 10412 10412 10413 10412 10412 10414 10414 10416 10417 10419 10420 10421 10422 10423 10424 10426 10430 10433 10436 10438 10440 10440 10440 10440 10440 10442 10445 10448
10392 10393 10394 10394 10396 10398 10396 10394 10396 10396 10397 10400 10399 10398 10397 10395 10394 10393 10393 10394 10394 10395 10395 10394 10398 10401 10397 10393 10392 10391 10392 10395 10395 10394 10395 10397 10398 10398 10399 10399 10399 10400 10401 10401 10401 10401 10401 10401 10401 10401 10401 10401 10400 10398 10398 10399 10401 10401 10401 10402 10403 10402 10402 10403 10403 10404 10406 10408 10409 10410 10411 10412 10413 10414 10417 10420 10424 10427 10429 10430 10430 10430 10430 10432 10435 10438
10384 10385 10385 10385 10388 10390 10387 10387 10387 10385 10388 10392 10392 10391 10388 10384 10384 10385 10385 10385 10384 10383 10384 10386 10387 10388 10387 10386 10383 10380 10381 10384 10385 10384 10383 10384 10385 10386 10388 10389 10390 10391 10391 10391 10391 10391 10391 10391 10391 10391 10391 10391 10391 10390 10389 10388 10389 10389 10391 10392 10392 10392 10392 10392 10392 10394 10395 10396 10398 10399 10401 10402 10403 10404 10406 10408 10412 10415 10417 10418 10419 10419 10420 10421 10423 10426
10375 10376 10376 10376 10379 10380 10379 10379 10379 10377 10379 10382 10382 10382 10379 10376 10376 10374 10374 10376 10375 10373 10374 10375 10376 10377 10377 10377 10374 10370 10370 10372 10373 10373 10372 10371 10372 10374 10375 10377 10378 10380 10380 10380 10380 10380 10380 10380 10380 10381 10381 10381 10381 10380 10379 10379 10378 10378 10379 10380 10381 10381 10381 10381 10382 10383 10383 10384 10386 10388 10390 10392 10393 10394 10396 10397 10401 10404 10405 10407 10408 10408 10409 10410 10411 10414
10367 10367 10368 10368 10370 10371 10370 10371 10371 10371 10372 10372 10372 10372 10371 10369 10367 10364 10364 10366 10365 10364 10363 10363 10365 10367 10366 10366 10365 10362 10360 10360 10360 10360 10361 10361 10361 10361 10363 10364 10366 10367 10368 10369 10369 10368 10368 10368 10369 10370 10370 10370 10369 10368 10368 10368 10368 10369 10369 10369 10369 10369 10369 10370 10371 10372 10372 10373 10374 10375 10378 10380 10382 10384 10386 10387 10390 10393 10394 10396 10396 10397 10398 10399 10400 10402
10358 10358 10358 10359 10360 10361 10361 10360 10361 10363 10363 10362 10363 10363 10361 10359 10357 10354 10354 10355 10355 10354 10353 10352 10354 10355 10355 10355 10354 10353 10352 10350 10347 10348 10349 10349 10349 10349 10350 10352 10353 10354 10355 10356 10355 10355 10356 10357 10358 10359 10358 10357 10357 10356 10356 10356 10357 10358 10358 10358 10358 10358 10358 10360 10360 10360 10360 10361 10363 10364 10366 10368 10371 10373 10375 10377 10379 10382 10384 10385 10385 10386 10387 10388 10389 10391
10349 10349 10349 10350 10349 10350 10350 10350 10350 10352 10352 10352 10354 10353 10351 10348 10346 10343 10342 10344 10345 10343 10343 10342 10343 10344 10345 10344 10344 10344 10341 10338 10335 10334 10335 10337 10338 10339 10338 10338 10339 10340 10341 10342 10342 10342 10344 10345 10345 10346 10346 10345 10344 10344 10344 10345 10346 10347 10347 10346 10346 10346 10347 10349 10349 10348 10349 10351 10352 10353 10355 10357 10360 10362 10364 10366 10368 10371 10372 10373 10374 10375 10376 10377 10378 10379
10340 10339 10340 10340 10340 10340 10339 10339 10339 10339 10340 10341 10341 10341 10340 10337 10334 10331 10329 10332 10334 10334 10333 10332 10332 10333 10334 10333 10335 10333 10329 10327 10321 10316 10322 10330 10329 10326 10324 10323 10324 10326 10327 10328 10329 10330 10331 10332 10333 10333 10333 10332 10332 10331 10332 10333 10334 10335 10335 10335 10334 10334 10335 10336 10336 10336 10338 10340 10341 10342 10344 10347 10350 10352 10354 10355 10356 10358 10360 10361 10363 10364 10365 10366 10366 10367
10331 10330 10329 10329 10329 10329 10328 10329 10329 10327 10328 10329 10328 10329 10330 10326 10322 10319 10317 10318 10323 10324 10323 10321 10319 10321 10321 10321 10322 10320 10317 10316 10306 10299 10312 10323 10317 10310 10311 10311 10311 10313 10314 10314 10316 10317 10318 10319 10320 10321 10321 10320 10319 10318 10319 10321 10322 10323 10324 10323 10322 10322 10323 10322 10322 10323 10326 10328 10330 10332 10334 10336 10338 10341 10343 10344 10346 10347 10349 10349 10351 10352 10353 10354 10355 10355
10319 10319 10319 10318 10318 10317 10317 10318 10318 10315 10315 10317 10316 10317 10318 10314 10310 10307 10305 10308 10313 10313 10310 10308 10307 10307 10308 10308 10309 10307 10305 10304 10296 10289 10297 10306 10301 10298 10301 10300 10300 10302 10302 10302 10303 10304 10305 10305 10306 10307 10307 10307 10306 10305 10306 10308 10310 10311 10311 10311 10310 10311 10310 10309 10309 10312 10315 10317 10318 10321 10323 10324 10327 10330 10332 10333 10335 10336 10337 10338 10339 10340 10340 10341 10342 10343
10308 10309 10308 10307 10306 10306 10305 10306 10307 10303 10303 10306 10305 10304 10304 10301 10297 10295 10295 10297 10299 10298 10297 10296 10294 10294 10296 10295 10296 10295 10293 10293 10290 10283 10282 10285 10287 10289 10290 10288 10289 10291 10291 10291 10292 10292 10292 10292 10292 10293 10293 10293 10292 10292 10293 10295 10297 10298 10299 10298 10299 10300 10298 10297 10299 10301 10304 10306 10308 10310 10311 10312 10315 10319 10321 10322 10323 10325 10326 10326 10327 10327 10328 10329 10330 10330
10297 10297 10297 10294 10294 10294 10293 10293 10293 10291 10291 10295 10293 10291 10291 10289 10285 10285 10285 10283 10283 10283 10284 10284 10283 10282 10283 10283 10283 10282 10280 10281 10281 10277 10272 10272 10274 10275 10276 10276 10278 10279 10278 10279 10279 10279 10280 10280 10280 10281 10280 10280 10280 10281 10282 10283 10285 10286 10287 10288 10289 10288 10287 10287 10289 10291 10292 10295 10297 10299 10299 10301 10304 10307 10310 10311 10311 10313 10315 10315 10316 10316 10317 10318 10317 10317
10284 10284 10284 10282 10281 10282 10281 10279 10279 10279 10280 10281 10279 10278 10278 10277 10275 10275 10273 10270 10270 10271 10271 10272 10272 10272 10272 10271 10270 10269 10268 10268 10269 10268 10266 10263 10262 10262 10263 10264 10265 10266 10267 10267 10267 10267 10268 10269 10270 10270 10269 10269 10270 10271 10271 10273 10275 10276 10277 10278 10277 10276 10276 10277 10278 10279 10281 10283 10286 10287 10288 10290 10292 10295 10298 10299 10300 10302 10304 10306 10306 10306 10307 10307 10306 10306
10272 10272 10272 10271 10269 10269 10268 10266 10265 10266 10267 10266 10265 10265 10266 10265 10264 10263 10261 10259 10259 10260 10259 10260 10260 10260 10260 10259 10258 10257 10257 10257 10256 10256 10256 10254 10252 10252 10252 10252 10253 10254 10255 10255 10254 10255 10257 10259 10260 10260 10260 10260 10260 10260 10261 10263 10266 10267 10268 10268 10266 10265 10266 10267 10268 10269 10271 10274 10275 10276 10277 10280 10283 10285 10287 10288 10290 10292 10295 10296 10296 10296 10297 10298 10297 10297
10259 10260 10260 10260 10257 10255 10256 10253 10251 10251 10252 10251 10251 10253 10254 10253 10252 10251 10250 10249 10248 10248 10248 10249 10249 10248 10248 10248 10247 10246 10245 10244 10244 10244 10244 10244 10243 10242 10241 10241 10241 10242 10242 10243 10243 10244 10245 10248 10249 10250 10250 10250 10250 10251 10252 10254 10257 10259 10259 10257 10255 10256 10256 10257 10258 10261 10263 10265 10266 10267 10267 10269 10272 10275 10276 10278 10280 10282 10285 10286 10286 10287 10288 10288 10288 10287
10248 10248 10248 10248 10245 10243 10243 10241 10237 10236 10237 10238 10240 10240 10240 10240 10240 10239 10240 10240 10238 10237 10237 10238 10238 10237 10237 10236 10236 10235 10233 10232 10233 10233 10233 10234 10233 10232 10232 10231 10230 10229 10230 10231 10232 10233 10236 10238 10239 10240 10241 10241 10240 10241 10243 10246 10248 10249 10248 10246 10246 10247 10247 10247 10250 10253 10255 10256 10257 10257 10258 10259 10262 10265 10267 10267 10270 10273 10276 10276 10277 10277 10278 10278 10279 10279
10239 10237 10236 10235 10234 10233 10231 10228 10225 10225 10225 10226 10227 10226 10226 10227 10228 10228 10229 10229 10228 10227 10227 10227 10227 10227 10226 10225 10225 10224 10223 10222 10221 10221 10222 10223 10223 10223 10222 10222 10220 10219 10219 10220 10221 10223 10226 10229 10231 10233 10233 10233 10231 10232 10234 10237 10238 10239 10238 10237 10237 10237 10238 10240 10244 10245 10246 10246 10247 10248 10249 10251 10254 10257 10257 10258 10261 10264 10266 10267 10267 10268 10269 10269 10271 10271
10229 10227 10225 10224 10223 10222 10220 10217 10215 10216 10216 10215 10214 10213 10212 10214 10216 10217 10218 10219 10219 10218 10217 10216 10215 10215 10216 10215 10213 10213 10213 10212 10211 10211 10211 10212 10212 10212 10212 10211 10211 10211 10211 10212 10213 10214 10216 10219 10222 10222 10223 10224 10223 10223 10226 10228 10227 10227 10228 10228 10229 10230 10232 10235 10236 10236 10237 10238 10238 10239 10240 10243 10245 10247 10248 10250 10252 10254 10256 10258 10259 10259 10260 10262 10263 10264
10219 10217 10215 10214 10214 10212 10210 10207 10207 10209 10208 10204 10202 10201 10201 10202 10204 10205 10206 10206 10207 10206 10206 10205 10204 10204 10205 10204 10203 10203 10204 10203 10202 10202 10203 10202 10202 10202 10202 10202 10202 10203 10204 10205 10205 10206 10208 10210 10211 10212 10213 10213 10213 10215 10217 10218 10217 10217 10219 10221 10222 10224 10226 10228 10227 10227 10228 10229 10229 10229 10231 10234 10237 10239 10240 10241 10243 10245 10248 10249 10250 10251 10253 10255 10257 10258
10208 10207 10206 10206 10205 10203 10200 10198 10199 10200 10197 10192 10191 10192 10193 10192 10194 10194 10193 10193 10193 10193 10193 10195 10195 10195 10195 10194 10194 10194 10195 10194 10193 10194 10195 10195 10194 10193 10194 10194 10194 10195 10195 10196 10196 10197 10198 10200 10202 10203 10204 10204 10203 10205 10207 10208 10209 10210 10212 10214 10216 10217 10219 10220 10219 10219 10219 10220 10220 10221 10224 10227 10230 10232 10233 10233 10234 10237 10240 10241 10241 10244 10247 10249 10250 10250
10199 10198 10197 10197 10195 10193 10190 10189 10189 10188 10186 10182 10182 10184 10184 10183 10184 10184 10183 10182 10182 10182 10182 10184 10185 10185 10184 10184 10184 10185 10185 10185 10184 10184 10185 10186 10185 10184 10185 10185 10185 10186 10186 10185 10186 10188 10189 10190 10192 10194 10195 10195 10194 10196 10198 10201 10202 10203 10204 10206 10208 10209 10211 10211 10211 10211 10212 10212 10213 10215 10218 10220 10222 10223 10224 10223 10225 10229 10231 10232 10234 10236 10239 10240 10242 10242